User: anonymous
Location: Columbia
(38.9520°N, 92.3340°W)
Time: 02:29:44
(UTC-05:00)
Language:

SJ-11-01 - Orbit

View from above orbital plane
View from above orbital plane
View from above satellite
View from above satellite

Ground track
Ground track

The orbit data is extracted from the following two-line orbital elements,

1 36088U 09061A   14105.74643440  .00000795  00000-0  17518-3 0  9215
2 36088 098.0444 155.9096 0009569 279.2401 080.7708 14.59990895235622
Epoch (UTC): 15 April 2014 17:54:51
Eccentricity: 0.0009569
inclination: 98.0444°
perigee height: 686 km
apogee height: 700 km
right ascension of ascending node: 155.9096°
argument of perigee: 279.2401°
revolutions per day: 14.59990895
mean anomaly at epoch: 80.7708°
orbit number at epoch: 23562

The dashed part of the orbit path shows where the satellite is in the earth's shadow,  

DLR